Regional Weather Roundup
Issued by NWS Lake Charles, LA

Home | Current Version | Previous Version | Text Only | Print | Product List | Glossary On
Versions: 1 2 3 4 5 6 7 8 9 10 11 12 13 14 15 16 17 18 19 20 21 22 23 24 25 26 27 28 29 30 31 32 33 34 35 36 37 38 39 40 41 42 43 44 45 46 47 48 49 50
000
ASUS44 KLCH 281510
RWRLCH
RWRLCH
REGIONAL WEATHER ROUNDUP
NATIONAL WEATHER SERVICE LAKE CHARLES LA
1000 AM CDT THU AUG 28 2014

Note: "fair" indicates few or no clouds below 12,000 feet with no
significant weather and/or obstructions to visibility.


ACROSS SOUTHEAST TEXAS

CITY           SKY/WX    TMP DP  RH WIND       PRES   REMARKS
BEAUMONT       CLOUDY    83  72  69 E6        29.97R
BEAUMONT CITY  HVY RAIN  76  74  95 E5        29.97S
ORANGE         MOSUNNY   83  74  74 E6        29.99R
JASPER         SUNNY     83  73  71 E6        30.00S
$$

ACROSS CENTRAL LOUISIANA

CITY           SKY/WX    TMP DP  RH WIND       PRES   REMARKS
LEESVILLE      SUNNY     84  73  69 SE7       29.99R
FULLERTON        N/A     88  72  58 CALM      29.97R
ALEXANDRIA INT SUNNY     84  74  71 SE8       29.98R
ESLER FIELD    SUNNY     85  75  72 SE7       30.00R
DERIDDER         N/A     83  74  74 CALM      30.01R HAZE
OAKDALE        MOSUNNY   84  78  81 E6        29.99S
OPELOUSAS        N/A    N/A N/A N/A SE5       29.99R
$$

ACROSS SOUTHWEST AND SOUTH CENTRAL LOUISIANA

CITY           SKY/WX    TMP DP  RH WIND       PRES   REMARKS
SULPHUR        PTSUNNY   84  78  83 SE10      29.98S
LAKE CHARLES   PTSUNNY   84  77  79 SE13      29.98R
CHENNAULT INT  PTSUNNY   84  75  74 E8        29.99R
CAMERON PHI    MOSUNNY   77  73  88 S10       29.99R FOG
DEQUINCY         N/A     84  76  77 E8        29.98S
JENNINGS       PTSUNNY   83  77  82 SE10      29.98S
LAFAYETTE      MOSUNNY   84  77  79 VRB6      29.99R
NEW IBERIA     PTSUNNY   85  77  77 SE10      29.99R
ABBEVILLE        N/A     83  78  82 E5        29.99R
PATTERSON      PTSUNNY   84  79  84 E7        30.01S
SALT POINT       N/A     84  79  85 VRB3      29.98R
$$

SELECTED SITES ACROSS THE REGION

CITY           SKY/WX    TMP DP  RH WIND       PRES   REMARKS
HOUSTON BUSH   PTSUNNY   84  75  74 SE14G22   29.96R
HOUSTON HOBBY  PTSUNNY   78  73  84 SE8       29.96R
GALVESTON      LGT RAIN  77  75  93 CALM      29.96R
COLLEGE STAT   CLOUDY    84  74  71 E8        29.97R
CONROE         PTSUNNY   81  76  84 VRB6      29.97R
HUNTSVILLE     SUNNY     83  74  74 CALM      29.98R
LUFKIN         CLOUDY    85  74  69 SE7       29.99R
SHREVEPORT     MOSUNNY   87  72  60 CALM      29.98S
MONROE         SUNNY     84  73  69 CALM      30.01R
NATCHEZ MS     MOSUNNY   82  75  78 SE5       30.02S
BATON ROUGE    PTSUNNY   84  75  74 E5        30.00R
N.O. INTL ARPT PTSUNNY   87  75  67 E7        30.00R
SLIDELL        MOSUNNY   84  75  74 E6        30.00R
$$

MARINE REPORTS

STATION/POSITION TIME  TEMP    WIND        PRES    VSBY  WAVE
                       AIR SEA DIR/SP/G                  HT/PER
                 (UTC) (F)     (DEG/KT/KT) (MB)    (MI)  (FT/S)
BUOY 30 S HIGH I 1500   81 86  200/ 12/ 17 1013.4R         3/ 5
SEA RIM ST PARK  1500   79      60/  6/  9 1015.1R
PORT ARTHUR      1500      86  100/  8/ 11 1014.8R
SABINE PASS N    1500   81 85  100/  8/ 11 1014.7R
TEXAS POINT      1500   82 84  110/ 19/ 21 1014.8R
CALCASIEU PASS   1500   74 84  120/  8/ 11 1016.5F
LK CHARLES BEACH 1500   84 88              1015.7R
MARSH ISLAND     NOT AVBL
FRESH WATER LOCK 1500   77 83   80/ 10/ 13 1015.4R
AMERADA PASS     1500   82 84  100/  7/ 10 1015.2S
$$


USA.gov is the U.S. government's official web portal to all federal, state and local government web resources and services.